EW8930 Weather Reports


time (UTC)temp
F
wind
direction
speed
knots
gust
knots
rain 1hr
in
rain 24hr
in
rain mn
in
humidity
%
barometer
mb
20260504081550 50 198 8.7 13.9 0.00 0.00 0.00 70 1007.4
20260504050022 51 214 7.8 12.2 0.00 0.00 0.00 68 1009.8
20260504044532 51 210 7.8 11.3 0.00 0.00 0.00 68 1009.9
20260504043028 51 213 7.8 13.0 0.00 0.00 0.00 68 1010.1
20260504041517 51 217 6.1 17.4 0.00 0.00 0.00 68 1010.2
20260504040019 51 192 7.0 11.3 0.00 0.00 0.00 70 1010.5
20260504034511 51 194 7.0 13.0 0.00 0.00 0.00 71 1010.7
20260504033011 50 183 7.8 12.2 0.00 0.00 0.00 71 1010.8
20260504031511 50 196 7.8 12.2 0.00 0.00 0.00 73 1010.8
20260504030008 49 186 6.1 8.7 0.00 0.00 0.00 74 1011.0
20260504024506 49 200 3.5 7.0 0.00 0.00 0.00 75 1011.2
20260504023006 50 186 5.2 8.7 0.00 0.00 0.00 73 1011.2
20260504021505 50 183 5.2 8.7 0.00 0.00 0.00 71 1011.3
20260504020005 51 194 5.2 9.6 0.00 0.00 0.00 70 1011.3
20260504014504 51 200 6.1 8.7 0.00 0.00 0.00 69 1011.4
20260504013002 52 201 5.2 8.7 0.00 0.00 0.00 68 1011.4
20260504011501 52 191 4.3 8.7 0.00 0.00 0.00 67 1011.4
20260504010101 52 224 3.5 7.8 0.00 0.00 0.00 66 1011.6
20260504004609 52 256 4.3 8.7 0.00 0.00 0.00 65 1011.7
20260504003059 52 195 7.0 13.0 0.00 0.00 0.00 64 1011.6
20260504001602 53 241 8.7 17.4 0.00 0.00 0.00 65 1011.8
20260504000101 53 232 11.3 16.5 0.00 0.00 0.00 63 1011.9
20260503234557 54 240 8.7 20.9 0.00 0.00 0.00 65 1012.0
20260503233056 54 267 15.6 22.6 0.00 0.00 0.00 62 1011.9
20260503231601 57 269 11.3 20.9 0.00 0.00 0.00 60 1011.8
20260503230108 58 284 17.4 26.1 0.00 0.00 0.00 55 1011.7
20260503224559 60 244 12.2 20.9 0.00 0.00 0.00 39 1011.4
20260503223054 61 240 11.3 21.7 0.00 0.00 0.00 40 1011.5
20260503221553 61 250 14.8 21.7 0.00 0.00 0.00 39 1011.5
20260503220052 61 240 13.9 20.0 0.00 0.00 0.00 39 1011.5
20260503214550 61 236 16.5 23.5 0.00 0.00 0.00 38 1011.5
20260503213056 61 257 14.8 26.1 0.00 0.00 0.00 38 1011.6
20260503211606 61 211 14.8 21.7 0.00 0.00 0.00 38 1011.7
20260503210049 61 238 15.6 26.9 0.00 0.00 0.00 36 1011.9
20260503204546 62 240 12.2 20.0 0.00 0.00 0.00 37 1011.9
20260503203049 63 217 11.3 23.5 0.00 0.00 0.00 36 1012.1
20260503201544 62 245 15.6 25.2 0.00 0.00 0.00 37 1012.2
20260503200054 62 241 15.6 21.7 0.00 0.00 0.00 36 1012.2
20260503194539 62 249 13.9 20.9 0.00 0.00 0.00 37 1012.5
20260503193042 62 250 13.9 21.7 0.00 0.00 0.00 36 1012.6
20260503191542 62 227 13.0 21.7 0.00 0.00 0.00 37 1013.0
20260503190041 62 223 13.9 24.3 0.00 0.00 0.00 37 1013.1
20260503184540 62 227 13.0 23.5 0.00 0.00 0.00 36 1013.4
20260503183030 61 233 13.9 21.7 0.00 0.00 0.00 36 1013.5
20260503181527 62 240 13.9 21.7 0.00 0.00 0.00 38 1013.6
20260503180042 62 238 13.0 22.6 0.00 0.00 0.00 40 1013.8
20260503174529 61 279 14.8 20.9 0.00 0.00 0.00 40 1014.1
20260503173029 61 234 15.6 21.7 0.00 0.00 0.00 38 1014.2
20260503171518 61 233 14.8 20.0 0.00 0.00 0.00 40 1014.3
20260503150106 54 279 10.4 17.4 0.00 0.00 0.00 58 1016.0